Location: Castelbiague
(43.0361°N, 0.9246°E)
Time: 08:12:00
(UTC+00:00)

Cosmos 1741 Rocket - Pass Details

Date: 17 June 2021
Orbit: 761 x 783 km, 74.0° (Epoch: 26 July)

Event Time Altitude Azimuth Distance (km) Brightness Sun altitude
Rises 21:00:52 0° 340° (NNW) 3,246 8.7 -12.1°
Reaches altitude 10° 21:03:15 10° 342° (NNW) 2,319 7.7 -12.4°
Maximum altitude 21:08:32 78° 69° (ENE) 794 4.0 -13.0°
Enters shadow 21:12:23 19° 154° (SSE) 1,782 5.3 -13.5°
